Showing default

QIANFAN-22, 61555

Orbit data source: Space-Track

QIANFAN-22, 61555 is a Chinese payload satellite in LEO that was launched on Tue, 15 Oct 2024 UTC via a CHANG ZHENG 6A launch vehicle from the Taiyaun Space Center, China (TSC). Payload-class satellites include a variety of spacecraft equipped with specific instruments for various scientific and technological missions. These include communications satellites like Starlink; space stations such as the ISS; scientific satellites like the Hubble; Earth observation satellites from companies like Planet Labs, Umbra, and HawkEye 360; GPS; miniature CubeSats for education and research; and military/defense satellites.

Loading next visibility...
Identifier
61555, 2024-185D
Orbit
LEO
Country
Flag of CNCN / PRC
Related business
Manufacturer
GESIH/SECM
Mission
Operational Commercial Communications
Bus & Motor
QIANFAN, Unknown motor
Mass
267 kg wet, ~267 kg dry
Launch date (UTC)
2024-10-15 (1 year ago)
Launch vehicle
CHANG ZHENG 6A
Launch site
Taiyaun Space Center, China (TSC)
Object type
Payload
Rocket body
Debris
Shape & HBR
Box + 1 Pan, 5.0 m
Radar Cross Section
13.200 m², Large (>1 m²)

Expand to show TLE details & history
Last TLE update: 5 hours ago

TLE from 5 hours ago
0 QIANFAN-22
1 61555U 24185D   25300.81152344  .00000273  00000-0  22470-3 0  9990
2 61555  88.9767  84.2723 0008204 127.2811 232.9110 13.86277893 62573
Epoch: 2025-10-27T19:28Z
TLE epoch observation values (Epoch: 2025-10-27T19:28:35.625Z)
Latitude
0.00006°
Longitude
115.71586°
Altitude
948.334 km
Speed
7.376 km/s
True Right ascension
05h 37m 05s
True Declination
0° 00' 00"
Sunlit
Object was in full shadow at epoch
Visualization orbit readout
Latitude
Unknown
Longitude
Unknown
Altitude
Unknown
Speed
Unknown
Apparent Right ascension
Unknown
Apparent Declination
Unknown
Sunlit
N/A
Visualization observer readout
Local Sidereal Time
19:30:01
Azimuth
Unknown
Elevation
Unknown
Doppler factor
Unknown
Orbital elements
Apogee altitude
944.707 km
Perigee altitude
932.701 km
Semi-major axis
7,316.841 km
Eccentricity
0.00082
Inclination
88.9767°
RAAN
84.2723°
Arg. of periapsis
127.2811°
True anomaly
232.83605°
Mean anomaly
232.911°
Eccentric anomaly
232.87352°
Mean motion
3.46783 °/min
Orbital period
103.81 mins
BSTAR
0.0002247
Loading maneuver chart data...
Computing Atmospheric mass density...
Loading historical data...
Loading historical data...
Loading historical data...
Loading historical data...
Loading historical data...
Loading historical data...
Loading historical data...

Documentation

Showing up to 5 results
|